Location: Rockford
(42.2710°N, 89.0940°W)
Time: 16:17:24
(UTC-06:00)

Daily predictions for brighter satellites

Satellite Brightness Start Highest point End
(mag) Time Altitude Azimuth Time Altitude Azimuth Time Altitude Azimuth
SJ-12 4.3 16:50:23 10° SE 16:54:13 41° ENE 16:58:06 10° N
Cosmos 2263 Rocket 2.8 16:49:13 10° SW 16:54:44 60° WNW 17:00:21 10° NNE
NOSS 3-1 (A) 4.2 16:48:24 10° NW 16:56:03 88° NE 17:04:24 10° SE
Thor Agena Rocket 3.9 16:51:37 10° NNE 16:56:34 45° E 17:01:34 10° S
CZ-3B DEB 3.0 16:54:55 10° S 16:57:58 26° ESE 17:04:05 10° ENE
Cosmos 1125 Rocket 3.6 16:53:13 10° S 16:58:28 70° ESE 17:03:47 10° NNE
CZ-4 R/B 1.5 16:56:22 10° SSE 17:00:30 59° ENE 17:04:36 10° N
Cosmos 1269 Rocket 4.0 16:56:27 10° NNW 17:01:47 75° ENE 17:07:05 10° SSE
ATLAS 2AS CENTAUR R/B 3.4 17:00:20 10° NNW 17:08:02 44° NE 17:15:20 10° ESE
Cosmos 1812 4.2 17:06:34 10° SE 17:09:12 18° E 17:11:51 10° NE
SL-8 Rocket 4.2 17:03:23 10° N 17:09:19 47° ENE 17:15:12 10° SSE
Cosmos 2251 Rocket 4.3 17:07:03 10° N 17:11:46 30° ENE 17:16:24 10° ESE
YAOGAN 1 2.6 17:08:24 10° SSE 17:12:38 57° ENE 17:16:54 10° N
Meteor 1-27 Rocket 4.2 17:06:52 10° SSW 17:12:41 68° W 17:18:27 10° N
Cosmos 1633 3.0 17:09:45 10° NNW 17:13:20 66° W 17:16:52 10° S
Abrixas 3.9 17:13:57 10° WNW 17:16:32 26° N 17:18:36 13° NE
Cosmos 2366 rocket 4.4 17:12:46 10° N 17:18:46 42° ENE 17:24:42 10° SE
Cosmos 1975 4.2 17:16:10 10° NNE 17:19:01 18° ENE 17:21:50 10° ESE
Cosmos 2218 Rocket 4.2 17:13:07 10° N 17:19:12 47° ENE 17:25:10 10° SSE
Cosmos 2181 Rocket 4.0 17:13:10 10° S 17:19:28 77° E 17:25:53 10° N
OTV 4 2.1 17:17:36 10° WSW 17:20:16 29° S 17:22:57 10° ESE
Cosmos 1844 Rocket 2.9 17:16:14 10° S 17:21:35 50° ESE 17:27:01 10° NE
MOS 1 4.3 17:16:53 10° SSE 17:22:34 87° ENE 17:28:15 10° NNW
Cosmos 1378 Rocket 4.1 17:20:33 10° SSW 17:24:47 60° W 17:29:04 10° N
Cosmos 1844 4.1 17:23:25 10° S 17:28:37 42° ESE 17:33:29 12° NE
SL-27 R/B 3.1 17:25:32 10° N 17:28:58 36° ENE 17:32:22 10° SE
Meteor 2-19 Rocket 4.4 17:25:23 10° N 17:31:24 62° E 17:37:22 10° SSE
GEOS 3 Rocket 3.7 17:26:50 10° ESE 17:31:47 52° NE 17:36:45 10° NNW
SKYMED 2 4.2 17:28:11 10° NNE 17:32:09 33° E 17:36:05 10° SSE
Cosmos 1455 Rocket 3.4 17:31:08 10° N 17:35:20 43° ENE 17:39:32 10° SSE
ISS -3.2 17:33:54 10° SW 17:37:09 61° SE 17:38:49 26° ENE
CORIOLIS 4.3 17:36:01 10° S 17:41:27 80° WSW 17:46:53 10° NNW
COSMOS 2406 3.5 17:39:18 10° NNW 17:45:01 72° WSW 17:50:42 10° SSE
Cosmos 158 Rocket 4.3 17:40:44 10° NNW 17:46:06 73° WSW 17:51:20 10° S
Cosmos 2278 Rocket 2.8 17:41:54 10° S 17:47:01 37° ESE 17:50:04 21° NE
SL-08 R/B 4.5 17:44:12 10° N 17:50:39 77° E 17:56:56 10° SSE
Cosmos 1484 Rocket 2.5 17:52:02 10° SSE 17:55:47 73° ENE 17:59:32 10° N
CZ-2C R/B 3.5 17:51:21 10° S 17:56:05 49° W 18:01:01 10° NNW
MONITOR-E 4.4 17:55:02 10° S 17:58:13 73° WSW 18:01:26 10° NNW
Cosmos 1238 Rocket 2.1 18:00:26 10° S 18:03:25 77° W 18:04:44 30° N
Cosmos 2082 Rocket 3.1 18:06:30 10° N 18:10:49 28° NE 18:10:49 28° NE
IDEFIX/ARIANE 42P 4.1 18:06:43 10° SSW 18:11:31 38° W 18:16:21 10° NNW
Nadezhda 3 Rocket 4.0 18:09:11 10° SSE 18:15:08 52° E 18:21:10 10° NNE
Okean 1 3.2 18:12:02 10° S 18:16:04 82° E 18:17:54 32° NNE
OPS 8737 4.2 18:13:01 10° SSW 18:16:12 76° SSE 18:16:12 76° SSE
Cosmos 1833 Rocket 3.8 18:14:44 10° N 18:18:13 26° NNE 18:18:13 26° NNE
COSMO-SKYMED 1 2.7 18:16:32 14° N 18:20:17 72° WNW 18:24:36 10° SSW
Meteor 2-21 4.3 18:17:07 10° N 18:23:20 71° E 18:29:27 10° SSE
Meteor 1-28 Rocket 3.1 18:29:51 82° S 18:29:51 82° S 18:33:30 10° SSW
USA 234 4.4 18:29:59 21° NNE 18:33:20 33° NNW 18:39:02 10° W
METEOR-M 4.0 18:33:04 10° SSE 18:38:23 79° ENE 18:43:45 10° N
Cosmos 1346 Rocket 3.4 18:35:37 10° S 18:38:32 49° SSW 18:38:32 49° SSW
NOAA 12 4.1 18:36:00 10° SSE 18:41:17 83° WSW 18:46:36 10° NNW
Meteor 2-14 Rocket 4.3 18:42:05 10° N 18:48:17 82° E 18:54:26 10° S
NOSS 3-3 (A) 3.9 18:44:28 10° SW 18:50:40 87° NW 18:52:24 52° NNE
NOSS 3-3 (C) 3.9 18:44:34 10° SW 18:50:46 88° NW 18:52:28 53° NNE
Cosmos 1975 4.5 18:51:56 10° NNW 18:55:39 34° W 18:59:19 10° SSW
OTV 4 3.7 18:54:35 10° SW 18:55:03 12° SW 18:55:03 12° SW
ATLAS 2AS CENTAUR R/B 3.7 18:51:32 10° NW 18:59:17 53° WSW 19:06:29 10° S
FALCON 9 R/B 3.4 18:41:55 10° WSW 19:00:02 50° S 19:01:52 42° SE
Meteor 2-16 Rocket 4.5 19:03:08 10° N 19:09:13 76° W 19:15:16 10° S
Timation 2 Rocket 4.1 19:05:40 10° NNW 19:12:31 89° WSW 19:13:14 74° SSE
Cosmos 2297 4.2 19:07:23 10° SSW 19:11:32 51° SSW 19:11:32 51° SSW
Cosmos 1535 Rocket 4.5 19:06:54 10° N 19:13:15 82° W 19:19:30 10° S
ISS 0.0 19:11:02 10° W 19:11:30 13° WNW 19:11:30 13° WNW
ATLAS 3B CENTAUR R/B 4.1 19:09:35 10° WSW 19:20:30 29° SSW 19:22:04 27° S
Cosmos 2278 Rocket 3.5 19:26:00 10° WSW 19:31:05 34° WNW 19:31:58 32° NW
CZ-3B DEB 3.6 19:27:23 10° W 19:32:37 49° NNW 19:34:11 45° NNE
Cosmos 2082 Rocket 4.0 19:50:17 10° NW 19:52:44 25° NW 19:52:44 25° NW
